,,,PA_Meas_PMT16A,,PR_Meas_QMR101_102,,RH_Meas_QMH101,,SR_Meas_QMS101,,TA_Meas_QMH101,,GenWind,,GenWind,
date,time,status,PA,status,PR,status,RH,status,SR,status,TA,status,DirAvg,status,SpdAvg,
2012-03-12, 00:00:04,VALID,1000.71,VALID,0,VALID,93.5086,VALID,0,VALID,23.5646,VALID,118,VALID,0,
2012-03-12, 00:01:04,VALID,1000.69,VALID,0,VALID,93.5391,VALID,0,VALID,23.5646,VALID,118,VALID,0,
2012-03-12, 00:02:04,VALID,1000.68,VALID,0,VALID,93.5086,VALID,0,VALID,23.5433,VALID,118,VALID,0,
2012-03-12, 00:03:04,VALID,1000.69,VALID,0,VALID,93.5468,VALID,0,VALID,23.5646,VALID,118,VALID,0,
2012-03-12, 00:04:04,VALID,1000.67,VALID,0,VALID,93.5544,VALID,0,VALID,23.5433,VALID,118,VALID,0,
2012-03-12, 00:05:04,VALID,1000.65,VALID,0,VALID,93.5773,VALID,0,VALID,23.5433,VALID,118,VALID,0,
2012-03-12, 00:06:04,VALID,1000.63,VALID,0,VALID,93.6154,VALID,0,VALID,23.5433,VALID,111,VALID,0.462109,
2012-03-12, 00:07:04,VALID,1000.65,VALID,0,VALID,93.6078,VALID,0,VALID,23.5646,VALID,100,VALID,0.463672,
2012-03-12, 00:08:04,VALID,1000.6,VALID,0,VALID,93.6078,VALID,0,VALID,23.5646,VALID,100,VALID,0.458594,
2012-03-12, 00:09:04,VALID,1000.58,VALID,0,VALID,93.6307,VALID,0,VALID,23.5646,VALID,100,VALID,0.542969,
2012-03-12, 00:10:04,VALID,1000.57,VALID,0,VALID,93.6154,VALID,0,VALID,23.5646,VALID,100,VALID,0.326172,
2012-03-12, 00:11:04,VALID,1000.57,VALID,0,VALID,93.6002,VALID,0,VALID,23.5433,VALID,100,VALID,0.235547,
2012-03-12, 00:12:04,VALID,1000.55,VALID,0,VALID,93.6078,VALID,0,VALID,23.5646,VALID,100,VALID,0.0386719,
2012-03-12, 00:13:04,VALID,1000.53,VALID,0,VALID,93.6154,VALID,0,VALID,23.5646,VALID,100,VALID,0.577344,
2012-03-12, 00:14:04,VALID,1000.53,VALID,0,VALID,93.6307,VALID,0,VALID,23.5646,VALID,80,VALID,0.566797,
2012-03-12, 00:15:04,VALID,1000.55,VALID,0,VALID,93.6078,VALID,0,VALID,23.5433,VALID,75,VALID,0.591406,
2012-03-12, 00:16:04,VALID,1000.52,VALID,0,VALID,93.5544,VALID,0,VALID,23.5433,VALID,75,VALID,0.323047,
2012-03-12, 00:17:04,VALID,1000.5,VALID,0,VALID,93.5391,VALID,0,VALID,23.5451,VALID,75,VALID,0,
2012-03-12, 00:18:04,VALID,1000.47,VALID,0,VALID,93.5391,VALID,0,VALID,23.5238,VALID,75,VALID,0,
2012-03-12, 00:19:04,VALID,1000.48,VALID,0,VALID,93.5468,VALID,0,VALID,23.5238,VALID,75,VALID,0,
2012-03-12, 00:20:04,VALID,1000.48,VALID,0,VALID,93.5849,VALID,0,VALID,23.5238,VALID,75,VALID,0,
2012-03-12, 00:21:04,VALID,1000.43,VALID,0,VALID,93.5773,VALID,0,VALID,23.5451,VALID,75,VALID,0,
2012-03-12, 00:22:04,VALID,1000.41,VALID,0,VALID,93.5544,VALID,0,VALID,23.5256,VALID,75,VALID,0,
2012-03-12, 00:23:04,VALID,1000.4,VALID,0,VALID,93.5544,VALID,0,VALID,23.5451,VALID,75,VALID,0,
2012-03-12, 00:24:04,VALID,1000.43,VALID,0,VALID,93.562,VALID,0,VALID,23.5256,VALID,75,VALID,0,
2012-03-12, 00:25:04,VALID,1000.4,VALID,0,VALID,93.6002,VALID,0,VALID,23.5238,VALID,75,VALID,0,
2012-03-12, 00:26:04,VALID,1000.4,VALID,0,VALID,93.6307,VALID,0,VALID,23.5451,VALID,75,VALID,0,
2012-03-12, 00:27:04,VALID,1000.35,VALID,0,VALID,93.646,VALID,0,VALID,23.5451,VALID,75,VALID,0.183984,
2012-03-12, 00:28:04,VALID,1000.37,VALID,0,VALID,93.6536,VALID,0,VALID,23.5256,VALID,75,VALID,0.20625,
2012-03-12, 00:29:04,VALID,1000.35,VALID,0,VALID,93.646,VALID,0,VALID,23.5238,VALID,75,VALID,0.144922,
2012-03-12, 00:30:04,VALID,1000.3,VALID,0,VALID,93.6231,VALID,0,VALID,23.5451,VALID,75,VALID,0,
2012-03-12, 00:31:04,VALID,1000.3,VALID,0,VALID,93.6307,VALID,0,VALID,23.5451,VALID,75,VALID,0,
2012-03-12, 00:32:04,VALID,1000.28,VALID,0,VALID,93.646,VALID,0,VALID,23.5451,VALID,75,VALID,0,
2012-03-12, 00:33:04,VALID,1000.24,VALID,0,VALID,93.6231,VALID,0,VALID,23.5043,VALID,75,VALID,0,
2012-03-12, 00:34:04,VALID,1000.23,VALID,0,VALID,93.646,VALID,0,VALID,23.5451,VALID,75,VALID,0,
2012-03-12, 00:35:04,VALID,1000.23,VALID,0,VALID,93.6765,VALID,0,VALID,23.5238,VALID,75,VALID,0.133203,
2012-03-12, 00:36:04,VALID,1000.19,VALID,0,VALID,93.6765,VALID,0,VALID,23.5238,VALID,75,VALID,0.108203,
2012-03-12, 00:37:04,VALID,1000.17,VALID,0,VALID,93.6765,VALID,0,VALID,23.5238,VALID,75,VALID,0,
2012-03-12, 00:38:04,VALID,1000.18,VALID,0,VALID,93.6612,VALID,0,VALID,23.5451,VALID,75,VALID,0,
2012-03-12, 00:39:04,VALID,1000.13,VALID,0,VALID,93.646,VALID,0,VALID,23.5238,VALID,75,VALID,0,
2012-03-12, 00:40:04,VALID,1000.13,VALID,0,VALID,93.6231,VALID,0,VALID,23.5256,VALID,75,VALID,0,
2012-03-12, 00:41:04,VALID,1000.11,VALID,0,VALID,93.6307,VALID,0,VALID,23.5256,VALID,75,VALID,0,
2012-03-12, 00:42:04,VALID,1000.07,VALID,0,VALID,93.6383,VALID,0,VALID,23.5256,VALID,75,VALID,0,
2012-03-12, 00:43:04,VALID,1000.1,VALID,0,VALID,93.6688,VALID,0,VALID,23.5256,VALID,75,VALID,0,
2012-03-12, 00:44:04,VALID,1000.07,VALID,0,VALID,93.707,VALID,0,VALID,23.5256,VALID,75,VALID,0.437109,
2012-03-12, 00:45:04,VALID,1000.03,VALID,0,VALID,93.6917,VALID,0,VALID,23.5256,VALID,75,VALID,0.230078,
2012-03-12, 00:46:04,VALID,1000.03,VALID,0,VALID,93.707,VALID,0,VALID,23.5451,VALID,75,VALID,0.14375,
2012-03-12, 00:47:04,VALID,1000.02,VALID,0,VALID,93.6688,VALID,0,VALID,23.5256,VALID,75,VALID,0,
2012-03-12, 00:48:04,VALID,1000.01,VALID,0,VALID,93.7146,VALID,0,VALID,23.5451,VALID,75,VALID,0,
2012-03-12, 00:49:04,VALID,1000,VALID,0,VALID,93.7299,VALID,0,VALID,23.5451,VALID,75,VALID,0,
2012-03-12, 00:50:04,VALID,999.985,VALID,0,VALID,93.7299,VALID,0,VALID,23.5451,VALID,75,VALID,0,
2012-03-12, 00:51:04,VALID,999.96,VALID,0,VALID,93.7375,VALID,0,VALID,23.5238,VALID,75,VALID,0,
2012-03-12, 00:52:04,VALID,999.937,VALID,0,VALID,93.6688,VALID,0,VALID,23.5238,VALID,75,VALID,0.285937,
2012-03-12, 00:53:04,VALID,999.927,VALID,0,VALID,93.5544,VALID,0,VALID,23.5256,VALID,75,VALID,0,
2012-03-12, 00:54:04,VALID,999.94,VALID,0,VALID,93.4476,VALID,0,VALID,23.5043,VALID,75,VALID,0.0386719,
2012-03-12, 00:55:04,VALID,999.926,VALID,0,VALID,93.4094,VALID,0,VALID,23.5061,VALID,75,VALID,0,
2012-03-12, 00:56:04,VALID,999.906,VALID,0,VALID,93.3408,VALID,0,VALID,23.5061,VALID,75,VALID,0,
2012-03-12, 00:57:04,VALID,999.915,VALID,0,VALID,93.2416,VALID,0,VALID,23.4866,VALID,77,VALID,0,
2012-03-12, 00:58:04,VALID,999.902,VALID,0,VALID,93.1729,VALID,0,VALID,23.4866,VALID,77,VALID,0,
2012-03-12, 00:59:04,VALID,999.876,VALID,0,VALID,93.0966,VALID,0,VALID,23.4653,VALID,77,VALID,0,
2012-03-12, 01:00:04,VALID,999.876,VALID,0,VALID,93.0661,VALID,0,VALID,23.4653,VALID,77,VALID,0,
2012-03-12, 01:01:04,VALID,999.892,VALID,0,VALID,93.0508,VALID,0,VALID,23.4653,VALID,77,VALID,0,
2012-03-12, 01:02:04,VALID,999.84,VALID,0,VALID,93.028,VALID,0,VALID,23.4653,VALID,77,VALID,0,
2012-03-12, 01:03:04,VALID,999.88,VALID,0,VALID,93.0585,VALID,0,VALID,23.4671,VALID,77,VALID,0,
2012-03-12, 01:04:04,VALID,999.882,VALID,0,VALID,93.1195,VALID,0,VALID,23.4866,VALID,77,VALID,0,
2012-03-12, 01:05:04,VALID,999.875,VALID,0,VALID,93.2034,VALID,0,VALID,23.4848,VALID,77,VALID,0,
2012-03-12, 01:06:04,VALID,999.856,VALID,0,VALID,93.2263,VALID,0,VALID,23.4848,VALID,77,VALID,0,
2012-03-12, 01:07:04,VALID,999.859,VALID,0,VALID,93.3637,VALID,0,VALID,23.5256,VALID,77,VALID,0,
2012-03-12, 01:08:04,VALID,999.855,VALID,0,VALID,93.5163,VALID,0,VALID,23.5646,VALID,77,VALID,0,
2012-03-12, 01:09:04,VALID,999.831,VALID,0,VALID,93.6383,VALID,0,VALID,23.5646,VALID,77,VALID,0.500391,
2012-03-12, 01:10:04,VALID,999.842,VALID,0,VALID,93.6994,VALID,0,VALID,23.5646,VALID,77,VALID,0.709766,
2012-03-12, 01:11:04,VALID,999.818,VALID,0,VALID,93.7223,VALID,0,VALID,23.5628,VALID,77,VALID,0.488281,
2012-03-12, 01:12:04,VALID,999.802,VALID,0,VALID,93.7375,VALID,0,VALID,23.5646,VALID,77,VALID,0.527344,
2012-03-12, 01:13:04,VALID,999.808,VALID,0,VALID,93.7528,VALID,0,VALID,23.5841,VALID,72,VALID,0.727344,
2012-03-12, 01:14:04,VALID,999.784,VALID,0,VALID,93.768,VALID,0,VALID,23.5628,VALID,68,VALID,0.753906,
2012-03-12, 01:15:04,VALID,999.762,VALID,0,VALID,93.7833,VALID,0,VALID,23.5628,VALID,68,VALID,0.754687,
2012-03-12, 01:16:04,VALID,999.789,VALID,0,VALID,93.7833,VALID,0,VALID,23.5823,VALID,68,VALID,0.850391,
2012-03-12, 01:17:04,VALID,999.796,VALID,0,VALID,93.7146,VALID,0,VALID,23.5646,VALID,68,VALID,1.01914,
2012-03-12, 01:18:04,VALID,999.805,VALID,0,VALID,93.6307,VALID,0,VALID,23.5433,VALID,76,VALID,0.918359,
2012-03-12, 01:19:04,VALID,999.794,VALID,0,VALID,93.5239,VALID,0,VALID,23.5451,VALID,82,VALID,1.0957,
2012-03-12, 01:20:04,VALID,999.763,VALID,0,VALID,93.356,VALID,0,VALID,23.5043,VALID,71,VALID,1.11953,
2012-03-12, 01:21:04,VALID,999.781,VALID,0,VALID,93.1805,VALID,0,VALID,23.5061,VALID,71,VALID,0.971094,
2012-03-12, 01:22:04,VALID,999.742,VALID,0,VALID,93.1271,VALID,0,VALID,23.4653,VALID,71,VALID,0.796094,
2012-03-12, 01:23:04,VALID,999.76,VALID,0,VALID,93.2111,VALID,0,VALID,23.4671,VALID,71,VALID,0.819922,
2012-03-12, 01:24:04,VALID,999.761,VALID,0,VALID,93.3026,VALID,0,VALID,23.4475,VALID,71,VALID,1.01641,
2012-03-12, 01:25:04,VALID,999.778,VALID,0,VALID,93.3026,VALID,0,VALID,23.4475,VALID,71,VALID,0.957422,
2012-03-12, 01:26:04,VALID,999.763,VALID,0,VALID,93.3026,VALID,0,VALID,23.4067,VALID,71,VALID,1.12852,
2012-03-12, 01:27:04,VALID,999.783,VALID,0,VALID,93.3942,VALID,0,VALID,23.428,VALID,71,VALID,1.22656,
2012-03-12, 01:28:04,VALID,999.769,VALID,0,VALID,93.5697,VALID,0,VALID,23.428,VALID,71,VALID,1.0957,
2012-03-12, 01:29:04,VALID,999.778,VALID,0,VALID,93.6765,VALID,0,VALID,23.4475,VALID,54,VALID,1.19844,
2012-03-12, 01:30:04,VALID,999.79,VALID,0,VALID,93.7146,VALID,0,VALID,23.4085,VALID,50,VALID,1.20508,
2012-03-12, 01:31:04,VALID,999.756,VALID,0,VALID,93.7528,VALID,0,VALID,23.428,VALID,50,VALID,1.15273,
2012-03-12, 01:32:04,VALID,999.718,VALID,0,VALID,93.6536,VALID,0,VALID,23.4085,VALID,59,VALID,1.66055,
2012-03-12, 01:33:04,VALID,999.727,VALID,0,VALID,93.562,VALID,0,VALID,23.3695,VALID,64,VALID,1.69531,
2012-03-12, 01:34:04,VALID,999.688,VALID,0,VALID,93.5239,VALID,0,VALID,23.35,VALID,72,VALID,1.44805,
2012-03-12, 01:35:04,VALID,999.643,VALID,0,VALID,93.5544,VALID,0,VALID,23.3305,VALID,68,VALID,1.13047,
2012-03-12, 01:36:04,VALID,999.636,VALID,0,VALID,93.6078,VALID,0,VALID,23.311,VALID,74,VALID,0.854297,
2012-03-12, 01:37:04,VALID,999.605,VALID,0,VALID,93.6383,VALID,0,VALID,23.2915,VALID,102,VALID,0.851563,
2012-03-12, 01:38:04,VALID,999.616,VALID,0,VALID,93.6536,VALID,0,VALID,23.2702,VALID,102,VALID,0.769141,
2012-03-12, 01:39:04,VALID,999.602,VALID,0.5,VALID,93.6994,VALID,0,VALID,23.2702,VALID,102,VALID,0.430469,
2012-03-12, 01:40:04,VALID,999.613,VALID,0,VALID,93.7604,VALID,0,VALID,23.2702,VALID,164,VALID,0.683203,
2012-03-12, 01:41:04,VALID,999.592,VALID,0,VALID,93.7909,VALID,0,VALID,23.2507,VALID,163,VALID,0.591016,
2012-03-12, 01:42:04,VALID,999.574,VALID,0,VALID,93.7985,VALID,0,VALID,23.2702,VALID,171,VALID,0.694531,
2012-03-12, 01:43:04,VALID,999.568,VALID,0,VALID,93.7985,VALID,0,VALID,23.2702,VALID,189,VALID,0.512109,
2012-03-12, 01:44:04,VALID,999.528,VALID,0,VALID,93.8138,VALID,0,VALID,23.2915,VALID,207,VALID,0.991016,
2012-03-12, 01:45:04,VALID,999.537,VALID,0,VALID,93.8443,VALID,0,VALID,23.2702,VALID,214,VALID,0.919922,
2012-03-12, 01:46:04,VALID,999.536,VALID,0,VALID,93.8214,VALID,0,VALID,23.2915,VALID,214,VALID,0.678125,
2012-03-12, 01:47:04,VALID,999.551,VALID,0,VALID,93.8138,VALID,0,VALID,23.2915,VALID,214,VALID,0.688281,
2012-03-12, 01:48:04,VALID,999.559,VALID,0,VALID,93.8291,VALID,0,VALID,23.2507,VALID,214,VALID,0.248437,
2012-03-12, 01:49:04,VALID,999.525,VALID,0,VALID,93.8291,VALID,0,VALID,23.2915,VALID,214,VALID,0.491406,
2012-03-12, 01:50:04,VALID,999.54,VALID,0,VALID,93.8367,VALID,0,VALID,23.2915,VALID,214,VALID,0.258594,
2012-03-12, 01:51:04,VALID,999.526,VALID,0,VALID,93.852,VALID,0,VALID,23.2915,VALID,214,VALID,0.240234,
2012-03-12, 01:52:04,VALID,999.564,VALID,0,VALID,93.8596,VALID,0,VALID,23.2915,VALID,214,VALID,0.139062,
2012-03-12, 01:53:04,VALID,999.555,VALID,0,VALID,93.8901,VALID,0,VALID,23.2915,VALID,214,VALID,0.655859,
2012-03-12, 01:54:04,VALID,999.556,VALID,0,VALID,93.9588,VALID,0,VALID,23.2702,VALID,65,VALID,0.828125,
2012-03-12, 01:55:04,VALID,999.506,VALID,0,VALID,93.9893,VALID,0,VALID,23.311,VALID,65,VALID,0.826953,
2012-03-12, 01:56:04,VALID,999.484,VALID,0,VALID,94.0656,VALID,0,VALID,23.311,VALID,66,VALID,0.427734,
2012-03-12, 01:57:04,VALID,999.47,VALID,0,VALID,94.0427,VALID,0,VALID,23.2915,VALID,70,VALID,0.541016,
2012-03-12, 01:58:04,VALID,999.461,VALID,0,VALID,94.0274,VALID,0,VALID,23.2915,VALID,70,VALID,0.436328,
2012-03-12, 01:59:04,VALID,999.445,VALID,0,VALID,94.0351,VALID,0,VALID,23.2915,VALID,70,VALID,0.107031,
2012-03-12, 02:00:04,VALID,999.439,VALID,0,VALID,93.9893,VALID,0,VALID,23.2702,VALID,70,VALID,0,
2012-03-12, 02:01:04,VALID,999.451,VALID,0,VALID,93.9588,VALID,0,VALID,23.2915,VALID,70,VALID,0,
2012-03-12, 02:02:04,VALID,999.436,VALID,0,VALID,93.974,VALID,0,VALID,23.2915,VALID,70,VALID,0,
2012-03-12, 02:03:04,VALID,999.441,VALID,0,VALID,93.9511,VALID,0,VALID,23.2719,VALID,70,VALID,0,
2012-03-12, 02:04:04,VALID,999.445,VALID,0,VALID,93.9588,VALID,0,VALID,23.2507,VALID,70,VALID,0,
2012-03-12, 02:05:04,VALID,999.452,VALID,0,VALID,93.974,VALID,0,VALID,23.2507,VALID,70,VALID,0,
2012-03-12, 02:06:04,VALID,999.451,VALID,0,VALID,94.0122,VALID,0,VALID,23.2507,VALID,70,VALID,0,
2012-03-12, 02:07:04,VALID,999.429,VALID,0,VALID,94.0198,VALID,0,VALID,23.2507,VALID,70,VALID,0,
2012-03-12, 02:08:04,VALID,999.432,VALID,0,VALID,94.0656,VALID,0,VALID,23.2719,VALID,70,VALID,0,
2012-03-12, 02:09:04,VALID,999.404,VALID,0,VALID,94.0656,VALID,0,VALID,23.2915,VALID,70,VALID,0,
2012-03-12, 02:10:04,VALID,999.378,VALID,0,VALID,94.0351,VALID,0,VALID,23.2719,VALID,70,VALID,0,
2012-03-12, 02:11:04,VALID,999.358,VALID,0,VALID,93.9969,VALID,0,VALID,23.2719,VALID,70,VALID,0,
2012-03-12, 02:12:04,VALID,999.345,VALID,0,VALID,94.0045,VALID,0,VALID,23.2507,VALID,70,VALID,0,
2012-03-12, 02:13:04,VALID,999.347,VALID,0,VALID,94.0045,VALID,0,VALID,23.2719,VALID,70,VALID,0,
2012-03-12, 02:14:04,VALID,999.345,VALID,0,VALID,94.0274,VALID,0,VALID,23.2915,VALID,70,VALID,0,
2012-03-12, 02:15:04,VALID,999.344,VALID,0,VALID,94.0503,VALID,0,VALID,23.2915,VALID,70,VALID,0,
2012-03-12, 02:16:04,VALID,999.362,VALID,0,VALID,94.0656,VALID,0,VALID,23.2702,VALID,70,VALID,0,
2012-03-12, 02:17:04,VALID,999.341,VALID,0,VALID,94.0885,VALID,0,VALID,23.2719,VALID,67,VALID,0.139844,
2012-03-12, 02:18:04,VALID,999.391,VALID,0,VALID,94.0732,VALID,0,VALID,23.2719,VALID,60,VALID,0.756641,
2012-03-12, 02:19:04,VALID,999.365,VALID,0,VALID,94.0961,VALID,0,VALID,23.2719,VALID,60,VALID,0.733594,
2012-03-12, 02:20:04,VALID,999.396,VALID,0,VALID,94.119,VALID,0,VALID,23.2915,VALID,60,VALID,0.53125,
2012-03-12, 02:21:04,VALID,999.373,VALID,0,VALID,94.1571,VALID,0,VALID,23.2915,VALID,60,VALID,0.403125,
2012-03-12, 02:22:04,VALID,999.367,VALID,0,VALID,94.1953,VALID,0,VALID,23.2719,VALID,60,VALID,0.342187,
2012-03-12, 02:23:04,VALID,999.365,VALID,0,VALID,94.2182,VALID,0,VALID,23.2915,VALID,60,VALID,0.253125,
2012-03-12, 02:24:04,VALID,999.341,VALID,0,VALID,94.2411,VALID,0,VALID,23.2915,VALID,60,VALID,0.0351563,
2012-03-12, 02:25:04,VALID,999.332,VALID,0,VALID,94.2411,VALID,0,VALID,23.2915,VALID,60,VALID,0.0542969,
2012-03-12, 02:26:04,VALID,999.311,VALID,0,VALID,94.2487,VALID,0,VALID,23.2719,VALID,60,VALID,0,
2012-03-12, 02:27:04,VALID,999.297,VALID,0,VALID,94.2563,VALID,0,VALID,23.2719,VALID,60,VALID,0,
2012-03-12, 02:28:04,VALID,999.309,VALID,0,VALID,94.2487,VALID,0,VALID,23.2915,VALID,60,VALID,0,
2012-03-12, 02:29:04,VALID,999.266,VALID,0,VALID,94.2258,VALID,0,VALID,23.2719,VALID,60,VALID,0,
2012-03-12, 02:30:04,VALID,999.292,VALID,0,VALID,94.2334,VALID,0,VALID,23.2915,VALID,60,VALID,0.46875,
2012-03-12, 02:31:04,VALID,999.303,VALID,0,VALID,94.2487,VALID,0,VALID,23.2507,VALID,60,VALID,0.56875,
2012-03-12, 02:32:04,VALID,999.315,VALID,0,VALID,94.2563,VALID,0,VALID,23.2719,VALID,60,VALID,0.349219,
2012-03-12, 02:33:04,VALID,999.324,VALID,0,VALID,94.2716,VALID,0,VALID,23.2719,VALID,60,VALID,0.346484,
2012-03-12, 02:34:04,VALID,999.329,VALID,0,VALID,94.2792,VALID,0,VALID,23.2719,VALID,60,VALID,0.0898438,
2012-03-12, 02:35:04,VALID,999.307,VALID,0,VALID,94.2792,VALID,0,VALID,23.2719,VALID,60,VALID,0.0933594,
2012-03-12, 02:36:04,VALID,999.306,VALID,0,VALID,94.3021,VALID,0,VALID,23.2719,VALID,60,VALID,0.396484,
2012-03-12, 02:37:04,VALID,999.269,VALID,0,VALID,94.325,VALID,0,VALID,23.2719,VALID,60,VALID,0.552344,
2012-03-12, 02:38:04,VALID,999.3,VALID,0,VALID,94.3403,VALID,0,VALID,23.2507,VALID,71,VALID,0.678516,
2012-03-12, 02:39:04,VALID,999.267,VALID,0,VALID,94.3326,VALID,0,VALID,23.2312,VALID,101,VALID,0.916797,
2012-03-12, 02:40:04,VALID,999.306,VALID,0,VALID,94.3021,VALID,0,VALID,23.2507,VALID,108,VALID,0.91875,
2012-03-12, 02:41:04,VALID,999.303,VALID,0,VALID,94.3021,VALID,0,VALID,23.2312,VALID,118,VALID,0.945313,
2012-03-12, 02:42:04,VALID,999.27,VALID,0,VALID,94.2792,VALID,0,VALID,23.2117,VALID,118,VALID,0.871875,
2012-03-12, 02:43:04,VALID,999.302,VALID,0,VALID,94.2487,VALID,0,VALID,23.1921,VALID,118,VALID,0.892578,
2012-03-12, 02:44:04,VALID,999.305,VALID,0,VALID,94.2334,VALID,0,VALID,23.2134,VALID,118,VALID,0.798437,
2012-03-12, 02:45:04,VALID,999.31,VALID,0,VALID,94.2487,VALID,0,VALID,23.1939,VALID,118,VALID,0.748047,
2012-03-12, 02:46:04,VALID,999.325,VALID,0,VALID,94.264,VALID,0,VALID,23.1726,VALID,118,VALID,0.765234,
2012-03-12, 02:47:04,VALID,999.287,VALID,0,VALID,94.2563,VALID,0,VALID,23.1531,VALID,118,VALID,0.778125,
2012-03-12, 02:48:04,VALID,999.275,VALID,0,VALID,94.2334,VALID,0,VALID,23.1744,VALID,118,VALID,0.652734,
2012-03-12, 02:49:04,VALID,999.281,VALID,0,VALID,94.264,VALID,0,VALID,23.1336,VALID,118,VALID,0.637891,
2012-03-12, 02:50:04,VALID,999.28,VALID,0,VALID,94.2792,VALID,0,VALID,23.1336,VALID,118,VALID,0.581641,
2012-03-12, 02:51:04,VALID,999.311,VALID,0,VALID,94.2868,VALID,0,VALID,23.1336,VALID,118,VALID,0.492969,
2012-03-12, 02:52:04,VALID,999.325,VALID,0,VALID,94.3021,VALID,0,VALID,23.1336,VALID,118,VALID,0.366797,
2012-03-12, 02:53:04,VALID,999.346,VALID,0,VALID,94.3403,VALID,0,VALID,23.1549,VALID,118,VALID,0.201953,
2012-03-12, 02:54:04,VALID,999.351,VALID,0,VALID,94.3403,VALID,0,VALID,23.1549,VALID,118,VALID,0.160547,
2012-03-12, 02:55:04,VALID,999.361,VALID,0,VALID,94.3479,VALID,0,VALID,23.1549,VALID,118,VALID,0,
2012-03-12, 02:56:04,VALID,999.341,VALID,0,VALID,94.3631,VALID,0,VALID,23.1141,VALID,118,VALID,0.0683594,
2012-03-12, 02:57:04,VALID,999.32,VALID,0,VALID,94.3555,VALID,0,VALID,23.1354,VALID,118,VALID,0,
2012-03-12, 02:58:04,VALID,999.302,VALID,0,VALID,94.3326,VALID,0,VALID,23.1354,VALID,118,VALID,0,
2012-03-12, 02:59:04,VALID,999.261,VALID,0,VALID,94.3326,VALID,0,VALID,23.1159,VALID,118,VALID,0.00585938,
2012-03-12, 03:00:04,VALID,999.267,VALID,0,VALID,94.3174,VALID,0,VALID,23.0946,VALID,118,VALID,0,
2012-03-12, 03:01:04,VALID,999.234,VALID,0,VALID,94.3403,VALID,0,VALID,23.0751,VALID,118,VALID,0,
2012-03-12, 03:02:04,VALID,999.24,VALID,0,VALID,94.325,VALID,0,VALID,23.0751,VALID,118,VALID,0,
2012-03-12, 03:03:04,VALID,999.254,VALID,0,VALID,94.3403,VALID,0,VALID,23.0751,VALID,118,VALID,0,
2012-03-12, 03:04:04,VALID,999.241,VALID,0,VALID,94.3937,VALID,0,VALID,23.0964,VALID,118,VALID,0,
2012-03-12, 03:05:04,VALID,999.26,VALID,0,VALID,94.3937,VALID,0,VALID,23.0964,VALID,118,VALID,0,
2012-03-12, 03:06:04,VALID,999.206,VALID,0,VALID,94.4089,VALID,0,VALID,23.0751,VALID,118,VALID,0,
2012-03-12, 03:07:04,VALID,999.204,VALID,0,VALID,94.4165,VALID,0,VALID,23.0556,VALID,118,VALID,0,
2012-03-12, 03:08:04,VALID,999.201,VALID,0,VALID,94.4318,VALID,0,VALID,23.0769,VALID,118,VALID,0.0667969,
2012-03-12, 03:09:04,VALID,999.198,VALID,0,VALID,94.4776,VALID,0,VALID,23.0556,VALID,118,VALID,0.0707031,
2012-03-12, 03:10:04,VALID,999.193,VALID,0,VALID,94.4852,VALID,0,VALID,23.0556,VALID,118,VALID,0,
2012-03-12, 03:11:04,VALID,999.174,VALID,0,VALID,94.4776,VALID,0,VALID,23.0751,VALID,118,VALID,0,
2012-03-12, 03:12:04,VALID,999.162,VALID,0,VALID,94.5081,VALID,0,VALID,23.0556,VALID,118,VALID,0,
2012-03-12, 03:13:04,VALID,999.179,VALID,0,VALID,94.4928,VALID,0,VALID,23.0751,VALID,118,VALID,0,
2012-03-12, 03:14:04,VALID,999.172,VALID,0,VALID,94.5081,VALID,0.104696,VALID,23.0751,VALID,118,VALID,0,
2012-03-12, 03:15:04,VALID,999.188,VALID,0,VALID,94.531,VALID,0,VALID,23.0946,VALID,118,VALID,0,
2012-03-12, 03:16:04,VALID,999.202,VALID,0,VALID,94.5157,VALID,0,VALID,23.0946,VALID,118,VALID,0,
2012-03-12, 03:17:04,VALID,999.228,VALID,0,VALID,94.531,VALID,0,VALID,23.0946,VALID,118,VALID,0,
2012-03-12, 03:18:04,VALID,999.196,VALID,0,VALID,94.5234,VALID,0.104696,VALID,23.0946,VALID,118,VALID,0,
2012-03-12, 03:19:04,VALID,999.194,VALID,0,VALID,94.5462,VALID,0,VALID,23.1159,VALID,118,VALID,0,
2012-03-12, 03:20:04,VALID,999.202,VALID,0,VALID,94.5157,VALID,0,VALID,23.0964,VALID,118,VALID,0,
2012-03-12, 03:21:04,VALID,999.191,VALID,0,VALID,94.531,VALID,0,VALID,23.0751,VALID,118,VALID,0,
2012-03-12, 03:22:04,VALID,999.214,VALID,0,VALID,94.5539,VALID,0,VALID,23.1159,VALID,118,VALID,0,
2012-03-12, 03:23:04,VALID,999.196,VALID,0,VALID,94.5615,VALID,0,VALID,23.1159,VALID,118,VALID,0,
2012-03-12, 03:24:04,VALID,999.173,VALID,0,VALID,94.592,VALID,0,VALID,23.1354,VALID,118,VALID,0,
2012-03-12, 03:25:04,VALID,999.177,VALID,0,VALID,94.5768,VALID,0,VALID,23.1566,VALID,118,VALID,0,
2012-03-12, 03:26:04,VALID,999.188,VALID,0,VALID,94.592,VALID,0,VALID,23.1354,VALID,118,VALID,0,
2012-03-12, 03:27:04,VALID,999.19,VALID,0,VALID,94.5768,VALID,0,VALID,23.1354,VALID,118,VALID,0,
2012-03-12, 03:28:04,VALID,999.135,VALID,0,VALID,94.5615,VALID,0,VALID,23.1549,VALID,118,VALID,0,
2012-03-12, 03:29:04,VALID,999.143,VALID,0,VALID,94.5691,VALID,0,VALID,23.1566,VALID,118,VALID,0,
2012-03-12, 03:30:04,VALID,999.165,VALID,0,VALID,94.5386,VALID,0,VALID,23.1549,VALID,118,VALID,0,
2012-03-12, 03:31:04,VALID,999.185,VALID,0,VALID,94.5157,VALID,0,VALID,23.1549,VALID,118,VALID,0,
2012-03-12, 03:32:04,VALID,999.147,VALID,0,VALID,94.4928,VALID,0,VALID,23.1549,VALID,118,VALID,0,
2012-03-12, 03:33:04,VALID,999.144,VALID,0,VALID,94.4852,VALID,0,VALID,23.1549,VALID,118,VALID,0,
2012-03-12, 03:34:04,VALID,999.182,VALID,0,VALID,94.4547,VALID,0,VALID,23.1549,VALID,118,VALID,0,
2012-03-12, 03:35:04,VALID,999.142,VALID,0,VALID,94.4394,VALID,0.104696,VALID,23.1531,VALID,118,VALID,0,
2012-03-12, 03:36:04,VALID,999.152,VALID,0,VALID,94.4623,VALID,0,VALID,23.1726,VALID,118,VALID,0,
2012-03-12, 03:37:04,VALID,999.179,VALID,0,VALID,94.4928,VALID,0,VALID,23.1726,VALID,118,VALID,0,
2012-03-12, 03:38:04,VALID,999.18,VALID,0,VALID,94.5081,VALID,0,VALID,23.1921,VALID,118,VALID,0,
2012-03-12, 03:39:04,VALID,999.176,VALID,0,VALID,94.5386,VALID,0,VALID,23.1921,VALID,118,VALID,0,
2012-03-12, 03:40:04,VALID,999.131,VALID,0,VALID,94.5768,VALID,0,VALID,23.2134,VALID,118,VALID,0,
2012-03-12, 03:41:04,VALID,999.151,VALID,0,VALID,94.592,VALID,0,VALID,23.2117,VALID,118,VALID,0,
2012-03-12, 03:42:04,VALID,999.138,VALID,0,VALID,94.6149,VALID,0.104696,VALID,23.1921,VALID,118,VALID,0,
2012-03-12, 03:43:04,VALID,999.164,VALID,0,VALID,94.6149,VALID,0,VALID,23.2134,VALID,118,VALID,0,
2012-03-12, 03:44:04,VALID,999.186,VALID,0,VALID,94.6302,VALID,0,VALID,23.2117,VALID,118,VALID,0,
2012-03-12, 03:45:04,VALID,999.188,VALID,0,VALID,94.6454,VALID,0,VALID,23.2117,VALID,118,VALID,0,
2012-03-12, 03:46:04,VALID,999.185,VALID,0,VALID,94.6378,VALID,0,VALID,23.1921,VALID,118,VALID,0,
2012-03-12, 03:47:04,VALID,999.177,VALID,0,VALID,94.6454,VALID,0,VALID,23.1921,VALID,118,VALID,0,
2012-03-12, 03:48:04,VALID,999.222,VALID,0,VALID,94.6454,VALID,0,VALID,23.1726,VALID,118,VALID,0,
2012-03-12, 03:49:04,VALID,999.226,VALID,0,VALID,94.6378,VALID,0,VALID,23.1726,VALID,118,VALID,0,
2012-03-12, 03:50:04,VALID,999.21,VALID,0,VALID,94.6683,VALID,0,VALID,23.1939,VALID,118,VALID,0,
2012-03-12, 03:51:04,VALID,999.256,VALID,0,VALID,94.6531,VALID,0,VALID,23.2134,VALID,118,VALID,0,
2012-03-12, 03:52:04,VALID,999.269,VALID,0,VALID,94.6683,VALID,0,VALID,23.1939,VALID,118,VALID,0,
2012-03-12, 03:53:04,VALID,999.304,VALID,0,VALID,94.7065,VALID,0,VALID,23.1939,VALID,118,VALID,0,